Lapse_Rate
6.0 6.6 6.6 6.5 6.8 6.0 6.6 6.4 6.3 6.1 6.1 6.0 5.8 5.7 5.5 5.4 5.4 5.3 5.5 5.3 5.0 5.1 5.0 4.9 4.8 4.7 4.7 4.9 5.1 5.3 5.5 5.9 6.1 6.4 6.9 7.3 7.5 7.4 7.2 7.0 6.7 6.4 6.3
5.3 5.6 5.6 6.0 6.0 6.0 6.4 6.1 6.1 6.1 6.0 5.8 5.5 4.8 4.7 4.9 4.6 5.0 5.2 5.2 5.2 5.0 4.9 4.7 4.6 4.8 4.9 5.2 5.4 5.8 6.0 6.2 6.4 7.2 7.6 7.6 7.6 7.3 6.8 6.6 6.4 6.2 6.1
5.6 5.9 6.4 6.4 6.6 6.4 6.0 6.0 6.0 6.0 5.7 4.7 4.6 4.8 4.9 4.7 4.9 5.0 5.1 5.0 5.1 4.8 4.6 4.7 4.8 5.1 5.5 5.7 6.0 6.2 6.3 6.6 7.2 7.5 7.7 7.5 7.3 6.9 6.4 6.2 6.0 6.1 6.3
6.3 6.3 6.4 6.5 6.2 5.9 6.2 6.2 6.0 5.8 5.2 5.0 4.9 5.2 5.3 5.2 5.3 5.2 5.1 5.1 4.9 4.9 5.0 5.2 5.5 5.7 5.9 6.1 6.2 6.4 6.9 7.3 7.5 7.5 7.5 7.4 7.2 6.9 6.4 6.1 6.3 6.2 6.3
6.7 6.6 6.4 5.8 6.0 6.2 6.0 6.1 6.3 5.6 5.1 5.1 5.7 5.6 5.5 5.4 5.3 5.2 5.0 4.9 5.0 5.2 5.3 5.6 5.8 5.8 6.1 6.3 6.5 6.9 7.3 7.5 7.5 7.6 7.7 7.6 7.3 6.8 6.3 6.2 6.1 6.5 6.9
7.1 6.8 5.8 6.0 6.0 6.0 6.0 6.0 5.1 5.2 4.8 4.9 5.6 5.6 5.4 5.3 5.2 5.1 5.1 5.3 5.5 5.5 5.7 6.1 6.2 6.2 6.3 6.4 6.8 7.1 7.5 7.6 7.7 7.8 7.7 7.3 7.0 6.4 6.2 6.1 6.3 6.8 7.2
6.4 6.1 6.2 6.2 6.3 6.1 5.7 5.2 5.3 5.1 5.2 5.6 5.5 5.4 5.4 5.2 5.4 5.5 5.5 5.6 5.8 5.8 6.2 6.5 6.5 6.5 6.5 6.8 7.0 7.3 7.6 7.5 7.5 7.5 7.6 7.2 7.0 6.4 6.2 6.3 6.4 6.6 6.6
6.1 6.3 6.4 6.2 6.0 5.5 5.2 5.3 5.1 5.3 5.3 5.3 5.6 5.4 5.4 5.9 5.8 5.9 6.0 6.3 6.1 6.4 6.6 6.7 6.8 6.8 6.9 7.0 7.1 7.5 7.5 7.4 7.5 7.5 7.5 7.3 7.0 6.6 6.3 6.3 6.5 6.7 6.6
6.1 6.1 5.9 6.0 5.2 5.0 5.1 4.9 5.2 5.3 5.5 5.6 5.6 5.9 6.2 6.3 6.3 6.4 6.6 6.5 6.4 6.7 6.8 6.9 6.9 6.9 7.0 7.1 7.3 7.6 7.6 7.5 7.6 7.6 7.5 7.3 6.8 6.5 6.3 6.4 6.4 6.5 6.6
6.0 5.8 5.4 5.3 5.1 4.9 5.0 5.1 5.4 5.7 5.8 6.0 6.2 6.3 6.5 6.6 6.5 6.6 6.6 6.5 6.6 6.8 7.0 7.0 7.0 7.1 7.1 7.1 7.4 7.6 7.7 7.6 7.7 7.7 7.6 7.2 6.9 6.6 6.3 6.2 6.3 6.5 6.5
5.9 5.5 5.4 5.2 5.0 5.1 5.3 5.5 5.5 5.8 6.1 6.2 6.4 6.5 6.8 6.7 6.6 6.6 6.6 6.5 6.6 6.9 7.2 7.1 7.2 7.4 7.3 7.2 7.4 7.6 7.6 7.7 7.7 7.8 7.7 7.5 7.3 7.0 6.7 6.4 6.4 6.5 6.5
5.7 5.4 5.2 5.1 5.0 5.3 5.7 5.8 5.9 6.1 6.3 6.6 6.7 6.9 6.9 6.7 6.6 6.6 6.5 6.6 6.7 6.9 7.1 7.2 7.2 7.5 7.4 7.2 7.4 7.6 7.7 7.7 7.7 7.7 7.7 7.6 7.6 7.4 7.0 6.7 6.5 6.5 6.4
5.2 5.2 5.0 5.0 5.3 5.5 5.5 5.8 6.2 6.6 6.6 6.6 6.8 6.8 6.8 6.7 6.5 6.4 6.5 6.6 6.8 7.0 7.1 7.1 7.2 7.4 7.4 7.4 7.4 7.5 7.6 7.6 7.6 7.6 7.7 7.7 7.6 7.6 7.4 7.1 6.7 6.6 6.3
5.1 5.0 5.0 5.2 5.3 5.4 5.7 6.2 6.6 6.6 6.6 6.7 6.6 6.7 6.6 6.6 6.5 6.4 6.5 6.6 6.9 7.0 6.9 7.0 7.3 7.5 7.5 7.3 7.2 7.2 7.4 7.6 7.6 7.6 7.8 7.7 7.7 7.6 7.5 7.2 6.9 6.7 6.4
5.0 5.4 5.5 5.5 5.6 5.9 6.3 6.6 6.7 6.8 6.4 6.4 6.5 6.4 6.4 6.5 6.4 6.5 6.5 6.6 6.8 6.9 6.9 7.0 7.1 7.5 7.6 7.5 7.4 7.3 7.3 7.5 7.5 7.6 7.7 7.7 7.7 7.7 7.5 7.3 7.0 6.8 6.5
5.2 5.3 5.4 5.7 6.1 6.6 6.9 7.2 7.2 6.9 6.5 6.2 6.1 6.1 6.0 6.2 6.5 6.8 6.7 6.7 6.8 6.8 6.8 6.9 6.9 7.3 7.5 7.5 7.5 7.4 7.3 7.4 7.4 7.5 7.5 7.6 7.6 7.7 7.6 7.5 7.1 6.8 6.6
5.1 5.3 5.5 5.8 6.2 6.7 7.1 7.1 7.1 7.3 6.6 6.3 6.2 6.0 6.0 6.3 6.5 6.9 6.9 6.8 6.8 6.8 6.7 6.8 6.9 7.2 7.5 7.5 7.6 7.4 7.3 7.3 7.3 7.4 7.5 7.5 7.6 7.6 7.6 7.5 7.2 6.9 6.6
5.3 5.4 5.5 5.9 6.6 7.1 7.2 7.2 7.0 6.7 6.4 6.2 6.4 6.4 6.3 6.4 6.8 7.2 7.1 6.9 6.9 6.9 6.7 6.7 6.9 7.2 7.5 7.5 7.5 7.5 7.3 7.3 7.2 7.3 7.4 7.5 7.5 7.5 7.6 7.5 7.4 7.0 6.8
5.6 5.9 6.5 7.0 7.3 7.3 7.1 6.9 6.6 6.4 6.3 6.0 6.6 6.7 6.7 6.8 6.9 7.2 7.1 7.0 6.8 6.9 6.8 6.8 6.9 7.3 7.6 7.6 7.5 7.5 7.4 7.3 7.1 7.3 7.3 7.4 7.4 7.4 7.5 7.5 7.5 7.2 6.9
5.9 6.3 6.8 7.1 7.1 6.9 6.7 6.4 6.2 6.1 6.2 6.0 6.1 6.5 6.6 6.4 6.8 7.2 7.3 7.3 7.2 7.0 7.0 7.0 7.1 7.4 7.8 7.7 7.6 7.5 7.5 7.3 7.2 7.2 7.2 7.3 7.3 7.3 7.4 7.5 7.5 7.3 7.0
6.4 6.8 7.0 6.9 6.7 6.4 6.2 6.1 6.0 5.9 5.7 6.0 6.2 6.2 6.5 6.6 6.9 7.0 7.3 7.5 7.2 7.1 7.3 7.4 7.4 7.7 8.0 7.9 7.8 7.6 7.5 7.4 7.4 7.2 7.3 7.3 7.3 7.2 7.4 7.5 7.4 7.4 7.2
6.7 6.9 6.7 6.4 6.1 6.0 5.9 5.9 5.9 5.9 5.7 6.0 6.6 6.8 7.0 7.0 7.0 7.1 7.1 7.3 7.3 7.4 7.4 7.8 7.9 7.9 7.9 7.9 7.8 7.7 7.6 7.5 7.5 7.4 7.5 7.4 7.4 7.3 7.3 7.4 7.4 7.4 7.3
6.6 6.4 6.1 5.8 5.7 5.7 5.6 5.3 5.5 6.1 6.4 6.6 6.7 6.7 6.8 7.1 7.3 7.2 7.2 7.2 7.4 7.5 7.6 7.7 8.0 8.2 8.1 7.8 7.8 7.8 7.7 7.7 7.6 7.6 7.6 7.6 7.5 7.4 7.3 7.4 7.4 7.4 7.4
6.1 5.9 5.5 5.6 5.6 5.7 5.3 5.0 5.6 6.3 6.2 6.2 6.2 6.3 6.4 6.8 7.0 7.1 7.3 7.3 7.3 7.4 7.5 7.6 7.9 8.0 8.0 8.0 7.9 7.9 7.7 7.8 7.8 7.8 7.7 7.6 7.5 7.4 7.4 7.4 7.4 7.4 7.4
5.7 5.4 5.5 5.5 5.4 5.2 5.3 5.2 5.0 5.1 5.4 5.7 5.8 6.0 6.1 6.4 6.7 7.0 7.3 7.3 7.4 7.5 7.7 7.7 7.8 7.7 7.9 7.8 7.9 7.9 7.9 7.8 7.8 7.8 7.7 7.6 7.5 7.4 7.4 7.5 7.5 7.5 7.5
5.4 5.4 5.4 5.3 5.0 5.0 5.2 5.1 4.8 4.9 5.0 5.1 5.3 5.5 5.8 6.3 6.8 7.1 7.4 7.5 7.5 7.5 7.5 7.6 7.9 7.8 7.8 7.6 7.6 7.8 7.9 7.7 7.7 7.8 7.8 7.7 7.6 7.5 7.5 7.5 7.5 7.5 7.5
Wind_Speed
7 6 7 6 7 3 5 3 5 4 5 4 3 2 1 3 3 3 3 2 1 1 3 5 5 2 2 1 2 2 3 2 3 3 2 3 2 4 13 17 16 17 17
8 7 7 7 6 1 3 5 3 4 3 3 2 2 3 4 4 3 3 3 4 4 4 3 5 3 1 1 3 3 2 2 2 4 3 2 3 4 10 8 13 15 14
9 8 7 4 5 5 5 5 2 2 1 3 4 5 4 5 5 5 5 5 5 6 5 5 6 4 3 3 3 3 2 1 1 2 4 2 3 3 6 7 7 10 13
7 7 6 6 6 6 6 4 3 1 3 5 5 5 4 5 5 5 5 6 5 4 5 5 6 6 5 5 3 4 2 1 2 3 4 6 3 5 4 6 6 4 6
7 9 7 6 6 6 5 3 3 4 4 5 6 5 5 4 4 5 5 5 4 2 3 4 5 6 8 6 4 4 3 1 2 4 5 5 6 6 7 5 7 7 8
9 9 7 6 6 6 4 1 3 5 5 4 5 4 5 4 7 7 5 4 3 3 3 5 5 6 4 8 8 7 5 2 3 2 3 5 6 6 3 5 8 8 7
10 7 6 6 6 3 1 3 5 4 1 3 3 5 6 6 7 8 8 4 5 5 4 4 3 0 4 4 4 3 2 5 5 3 4 4 5 6 8 9 9 7 9
8 7 6 4 1 5 2 4 4 3 4 4 4 5 4 4 8 10 9 5 4 5 4 4 4 4 5 5 4 3 4 4 4 4 5 5 6 7 6 8 10 8 7
7 5 3 5 3 3 5 5 4 4 4 5 5 5 5 5 8 10 7 5 5 5 4 5 5 5 7 7 3 3 4 5 7 8 11 13 15 17 16 6 5 7 7
5 2 4 2 2 4 4 2 1 1 4 5 6 5 6 6 9 11 10 3 5 4 4 5 7 6 10 9 4 4 4 5 4 5 5 9 12 13 14 7 5 6 7
5 4 1 2 4 5 4 2 1 2 4 5 4 5 6 7 7 11 14 5 5 5 5 4 4 10 11 10 9 5 6 4 6 5 5 4 4 5 5 9 9 5 6
2 1 3 5 4 3 5 3 3 2 3 4 4 6 5 7 10 12 13 15 13 7 7 5 5 11 13 13 9 10 12 6 3 4 4 5 4 4 4 7 12 12 12
2 4 5 5 5 4 4 5 4 4 4 4 4 5 5 4 4 11 13 15 16 8 7 9 11 11 13 10 12 12 9 3 3 2 5 3 3 3 7 6 11 13 13
5 6 5 5 6 5 4 4 4 4 4 5 5 7 6 4 4 4 4 5 10 11 8 7 6 6 5 5 4 7 4 4 4 4 3 2 2 2 2 4 5 6 7
6 6 6 5 6 6 6 6 6 8 9 7 7 7 5 6 7 10 9 5 5 6 5 4 5 4 4 4 4 5 4 3 3 2 2 2 2 2 2 2 3 5 5
6 6 4 5 6 6 6 8 14 18 16 20 20 12 7 14 16 17 16 16 13 13 4 3 4 4 6 6 5 4 3 4 3 3 2 2 2 2 2 2 3 3 5
6 6 5 6 7 8 8 8 11 12 20 20 19 19 18 18 18 18 17 17 15 13 7 6 7 6 7 6 5 4 5 5 4 4 3 3 2 2 2 2 3 3 5
9 9 6 7 7 8 8 9 10 11 12 11 13 16 14 16 17 19 15 14 7 9 7 7 7 7 7 7 6 5 5 3 4 4 3 3 3 2 1 2 3 2 4
8 8 9 9 9 8 10 11 11 12 11 10 7 3 6 15 14 17 18 8 7 7 7 8 8 7 7 7 6 5 5 4 4 3 3 3 3 2 2 3 2 4 4
9 11 10 10 10 11 10 10 11 11 11 5 1 3 3 1 3 8 4 5 7 7 7 8 7 7 7 7 6 6 5 4 4 4 4 4 3 3 3 3 2 2 2
8 9 14 10 10 10 10 11 12 10 5 3 4 3 5 5 7 7 7 4 6 8 8 7 7 7 7 7 7 6 6 6 6 6 4 4 4 3 3 2 2 3 2
7 8 9 10 10 9 10 10 10 7 5 5 6 6 10 6 6 6 6 5 6 6 7 7 7 7 7 8 8 7 7 7 6 6 5 4 4 3 3 2 1 1 1
7 9 9 8 8 11 9 9 8 8 8 8 8 7 6 6 7 8 8 8 8 8 10 6 6 7 7 7 11 8 8 8 7 7 6 5 4 4 3 2 2 1 0
7 8 8 8 8 8 9 9 8 11 9 8 8 8 7 7 7 8 8 8 8 9 9 8 10 8 6 6 10 13 13 12 12 11 10 7 5 5 3 2 3 2 2
5 7 7 8 8 7 8 7 7 8 8 8 8 7 8 7 7 7 8 8 9 9 10 11 12 15 15 9 11 14 16 17 15 14 12 7 7 8 4 3 3 2 1
6 6 6 6 7 7 8 7 7 7 7 7 7 7 7 8 6 7 8 9 9 9 11 11 16 20 26 18 14 15 17 18 16 18 14 7 7 5 4 4 4 2 2
Wind_Direction
129 121 115 103 99 49 99 153 152 141 145 136 122 112 47 134 151 149 185 179 177 266 299 288 280 263 230 188 128 147 181 174 242 278 258 294 298 317 319 309 309 307 302
123 113 115 118 96 164 100 115 129 133 148 133 169 232 259 205 200 209 221 237 234 247 276 290 266 273 323 116 128 165 175 218 200 280 256 279 264 305 298 296 304 304 303
122 120 111 139 125 119 100 90 109 115 184 229 229 243 260 205 211 227 238 245 235 242 242 243 257 244 232 189 193 196 206 197 224 257 300 280 274 293 300 295 292 296 301
125 125 122 117 123 102 89 90 76 48 248 257 266 280 232 194 214 243 248 254 259 269 283 280 265 242 202 209 205 198 182 240 257 290 291 292 282 296 276 294 303 296 306
119 115 122 127 113 110 93 47 11 350 324 301 284 254 211 202 225 238 249 248 228 230 338 337 315 253 225 197 167 188 179 228 287 285 292 296 303 306 304 310 308 306 297
119 123 125 117 115 90 71 292 342 315 319 358 324 251 233 244 252 240 218 210 210 216 242 258 264 276 175 163 160 164 163 199 259 252 277 284 294 299 312 297 298 304 312
120 120 114 101 99 166 0 6 296 302 253 300 307 270 266 267 253 212 202 208 215 224 242 271 267 189 180 179 171 171 244 272 271 244 272 276 295 297 293 296 291 282 289
114 108 114 134 116 54 339 291 285 240 256 270 277 271 242 260 243 218 224 225 230 238 243 222 243 255 221 201 195 240 269 277 275 277 269 279 276 280 269 285 294 287 278
102 120 120 84 73 334 296 293 296 261 266 269 251 216 213 241 242 230 215 224 235 247 235 242 247 236 215 202 208 262 284 285 294 284 301 303 307 315 315 315 310 312 308
145 153 92 95 302 271 264 245 264 332 302 295 267 238 245 256 241 235 224 202 225 241 251 250 247 203 204 211 206 230 265 275 272 283 289 303 305 302 313 299 292 298 303
91 90 84 270 263 262 209 222 246 342 330 327 308 290 277 265 260 247 242 207 223 239 240 246 223 218 215 228 243 208 226 245 271 267 273 282 280 280 290 295 286 269 289
56 327 291 280 274 253 227 247 244 273 294 275 259 269 260 271 265 257 246 229 221 219 236 237 221 229 230 235 255 246 258 254 234 261 271 284 281 282 277 292 294 287 274
301 283 275 275 272 263 247 246 239 247 246 261 256 271 268 252 262 277 263 244 239 229 232 230 228 239 240 249 262 270 275 238 239 235 269 261 240 260 293 305 307 303 297
266 260 262 264 265 257 245 227 226 236 242 249 259 266 264 253 241 242 229 246 260 246 236 239 221 217 222 237 259 269 245 225 224 233 231 235 269 281 277 299 309 314 310
265 261 261 246 242 248 237 224 229 233 222 241 242 243 251 267 254 242 236 236 231 227 229 235 236 220 231 242 250 243 246 230 215 207 193 230 252 261 269 284 294 313 315
314 303 296 291 283 272 262 268 235 242 239 235 242 233 244 236 263 261 254 244 230 230 214 204 221 220 228 239 241 243 235 233 225 195 195 210 235 255 265 294 300 295 311
332 316 306 295 293 291 283 273 280 273 240 246 245 244 248 254 261 259 258 247 234 236 231 219 229 225 230 234 233 225 243 234 195 193 193 210 225 259 290 291 299 301 311
336 319 307 306 304 300 291 286 283 281 281 273 242 237 249 259 266 272 263 258 242 228 230 231 229 225 229 233 230 230 231 218 194 192 193 199 205 197 276 283 301 279 303
335 329 325 315 304 298 310 312 303 291 283 272 270 247 233 255 269 276 262 261 243 228 225 230 229 229 226 227 226 224 215 203 195 184 206 200 204 169 239 260 288 309 296
332 318 313 310 308 311 302 300 297 290 288 270 272 258 258 24 289 281 246 247 250 245 227 224 227 224 221 219 221 219 211 199 198 202 207 200 203 171 209 238 276 278 291
333 331 327 318 312 305 299 297 296 291 264 258 256 268 287 283 278 269 272 243 249 255 241 228 227 222 220 219 220 215 209 207 203 203 189 201 168 182 208 209 239 277 270
337 337 342 338 325 328 342 340 318 314 339 358 4 14 5 5 347 324 320 321 307 263 250 243 230 224 219 214 214 215 213 209 200 194 187 182 180 186 171 178 222 260 291
343 346 342 343 347 345 358 0 8 15 11 14 15 15 10 1 16 5 5 355 346 342 340 292 248 241 225 221 212 207 204 204 202 184 182 178 179 174 165 169 180 191 231
4 354 351 351 350 357 3 359 17 10 15 14 7 7 11 10 8 2 359 350 347 342 339 336 332 280 255 231 224 213 204 200 183 184 173 171 174 165 151 147 164 167 183
20 1 357 353 351 352 353 355 11 5 6 3 357 3 360 1 360 357 354 347 343 338 336 333 333 333 317 270 242 212 199 180 176 170 166 162 164 165 158 148 148 149 152
9 9 358 352 351 356 355 354 4 358 358 354 349 352 354 346 349 355 350 345 340 334 333 331 333 334 332 304 271 218 185 172 166 162 157 155 154 158 156 150 153 148 150